Weather Roundup
Issued by NWS

Home | Current Version | Previous Version | Graphics & Text | Print | Product List | Glossary Off
Versions: 1 2 3 4 5 6 7 8 9 10 11 12 13 14 15 16 17 18 19 20 21 22 23 24 25 26 27 28 29 30 31 32 33 34 35 36 37 38 39 40 41 42 43 44 45 46 47 48 49 50

000
NZUS93 KARX 041010
HRRWXR

CURRENT HOURLY OBSERVATIONS ACROSS
MUCH OF THE UPPER MISSISSIPPI VALLEY
NATIONAL WEATHER SERVICE LA CROSSE WI
500 AM CDT MON MAY 04 2015


...SOUTHEAST MINNESOTA...


CITY           SKY/WX    TMP DP  RH WIND       PRES   REMARKS
ROCHESTER      PTCLDY    52  48  86 N12       30.01R
ROCHESTER/MAYO FAIR      53  50  89 NW3       30.01R
WINONA         PTCLDY    55  54  94 NW3       29.99R
AUSTIN         PTCLDY    54  48  82 N7        29.99R
ALBERT LEA     PTCLDY    54  46  76 N10       30.00S
DODGE CENTER   CLEAR     52  46  82 N8        30.02R
PRESTON        MOCLDY    53  51  93 N5        30.01R
OWATONNA       PTCLDY    52  45  76 N6        30.02R
FARIBAULT      PTCLDY    55  39  54 N10G17    30.04R
$$

...ELSEWHERE IN MINNESOTA...


CITY           SKY/WX    TMP DP  RH WIND       PRES   REMARKS
MINNEAPOLIS    PTCLDY    53  35  50 N12       30.05R
INTNL FALLS    CLEAR     31  30  96 W3        30.08R
DULUTH         CLEAR     45  34  65 N8        30.05R
RED WING       CLEAR     55  37  50 NE9G16    30.01R
REDWOOD FALLS  CLEAR     50  30  46 N5        30.06R
MANKATO          N/A    N/A N/A N/A MISG        N/A
WORTHINGTON    MOCLDY    46  27  46 N9        30.08R
FAIRMONT       MOCLDY    52  32  46 N12       30.03R
$$

...SOUTHWEST WISCONSIN...


CITY           SKY/WX    TMP DP  RH WIND       PRES   REMARKS
LA CROSSE      MOCLDY    60  57  89 N9        29.97R
PRAIRIE DU CHI CLOUDY    57  56  95 NW5       29.97R
BOSCOBEL       CLOUDY    58  56  93 CALM      29.99R
LONE ROCK      CLOUDY    58  56  93 NW8       29.97R
PLATTEVILLE    CLOUDY    56  55  97 W6        29.96R
FORT MC COY    CLOUDY    57  56  96 CALM      29.97S
CAMP DOUGLAS   CLOUDY    57  57 100 NW7       29.96R
VIROQUA        CLOUDY    57  57 100 W3        30.00R
WIS DELLS      NOT AVBL
$$

...ELSEWHERE IN WISCONSIN...


CITY           SKY/WX    TMP DP  RH WIND       PRES   REMARKS
MILWAUKEE      CLOUDY    61  53  75 NW6       29.89S
MADISON        CLOUDY    56  54  93 N7        29.94R FOG
GREEN BAY      CLOUDY    58  56  93 NW8       29.91R
EAU CLAIRE     CLEAR     53  42  66 N8        30.00R
BLACK RVR FLS  FOG       51  51 100 CALM      29.97R VSB 1/4
MEDFORD        CLEAR     49  45  85 N8        29.98R
WAUSAU         MOCLDY    53  50  89 NW3       29.95R
WIS RAPIDS     FOG       52  51  97 NW3       29.97R VSB 1/4
MARSHFIELD     PTCLDY    53  52  96 N6        29.97R
RICE LAKE      CLEAR     51  35  53 N8        30.04R
$$

...NORTHEAST IOWA...


CITY           SKY/WX    TMP DP  RH WIND       PRES   REMARKS
DECORAH        CLOUDY    57  57 100 N7        29.97S
MASON CITY     MOCLDY    54  51  90 N9        30.01R
CHARLES CITY   CLOUDY    57  57 100 N10       29.98R
OELWEIN        CLOUDY    57  57 100 NE3       29.95R
$$

...ELSEWHERE IN IOWA...


CITY           SKY/WX    TMP DP  RH WIND       PRES   REMARKS
DES MOINES     CLOUDY    63  55  75 E7        29.93R
IOWA CITY      LGT RAIN  60  58  92 E6        29.98S
FORT DODGE     CLOUDY    55  48  76 NE5       30.02R
$$

...NORTHERN ILLINOIS...


CITY           SKY/WX    TMP DP  RH WIND       PRES   REMARKS
CHICAGO-OHARE  CLOUDY    61  53  75 S10       29.90F
CHICAGO-MIDWAY CLOUDY    64  53  67 S10       29.92F
MOLINE         CLOUDY    60  57  89 VRB3      29.95S
ROCKFORD       CLOUDY    59  55  87 CALM      29.93R
PEORIA         LGT RAIN  63  57  81 N7        30.00R
$$

NOTE: "FAIR" INDICATES FEW OR NO CLOUDS BELOW 12,000 FEET WITH NO
SIGNIFICANT WEATHER AND/OR OBSTRUCTIONS TO VISIBILITY. WIND
SPEEDS ARE IN MILES-PER-HOUR.



USA.gov is the U.S. government's official web portal to all federal, state and local government web resources and services.